Weather History for KGPH - December, 2012

Change the Weather History Date:

Saturday, December 29, 2012

  Actual Average (KMCI) Record (KMCI)
Temperature  
Mean Temperature 24 °F 29 °F  
Max Temperature 32 °F 38 °F 68 °F (1947)
Min Temperature 17 °F 20 °F -9 °F (1917)
Degree Days  
Heating Degree Days 40 36  
Month to date heating degree days 968  
Since 1 July heating degree days 1970  
Cooling Degree Days 0 0  
Month to date cooling degree days 0  
Year to date cooling degree days 1360  
Moisture  
Dew Point 18 °F    
Average Humidity 78    
Maximum Humidity 100    
Minimum Humidity 55    
Precipitation  
Precipitation 0.00 in 0.03 in 0.65 in (1971)
Month to date precipitation 1.46  
Year to date precipitation 38.79  
Snow  
Snow 0.00 in 0.10 in 1.50 in (1969)
Month to date snowfall 4.5  
Since 1 July snowfall 5.9  
Snow Depth -    
Sea Level Pressure  
Sea Level Pressure 30.22 in    
Wind  
Wind Speed 8 mph (WNW)    
Max Wind Speed 16 mph    
Max Gust Speed 23 mph    
Visibility 9 miles    
Events Snow    
T = Trace of Precipitation, MM = Missing Value Source: NWS Daily Summary

Daily Weather History Graph

Daily Weather History Graph

Search for Another Location

Airport or City:

Trip Planner

Search our weather history database for the weather conditions in past years. The results will help you decide how hot, cold, wet, or windy it might be!

Date:

Astronomy

Dec. 29, 2012 Rise Set
Actual Time 7:36 AM CST 5:02 PM CST
Civil Twilight 7:06 AM CST 5:32 PM CST
Nautical Twilight 6:32 AM CST 6:06 PM CST
Astronomical Twilight 6:00 AM CST 6:39 PM CST
Moon 6:35 PM CST (12/29) 8:11 AM CST (12/29)
Length of Visible Light 10h 26m
Length of Day
9h 25m
Full, 98% of the Moon is Illuminated
Dec 29
Full
Jan 4
Last Quarter
Jan 11
New
Jan 18
First Quarter
Jan 26
Full

Hourly Weather History & Observations

Time (CST) Temp. Windchill Dew Point Humidity Pressure Visibility Wind Dir Wind Speed Gust Speed Precip Events Conditions
12:15 AM 24.8 °F 14.6 °F 19.4 °F 80% 30.06 in 5.0 mi WNW 10.4 mph - N/A Snow Light Snow
12:35 AM 24.8 °F 15.3 °F 21.2 °F 86% 30.07 in 5.0 mi WNW 9.2 mph - N/A Snow Light Snow
12:55 AM 24.8 °F 16.1 °F 21.2 °F 86% 30.07 in 5.0 mi WNW 8.1 mph - N/A Snow Light Snow
1:15 AM 24.8 °F 15.3 °F 21.2 °F 86% 30.07 in 5.0 mi NW 9.2 mph - N/A Snow Light Snow
1:35 AM 24.8 °F 14.6 °F 21.2 °F 86% 30.07 in 5.0 mi NW 10.4 mph - N/A Snow Light Snow
1:55 AM 24.8 °F 14.6 °F 21.2 °F 86% 30.09 in 5.0 mi NW 10.4 mph 16.1 mph N/A   Overcast
2:15 AM 23.0 °F 11.7 °F 19.4 °F 86% 30.10 in 5.0 mi NW 11.5 mph 16.1 mph N/A   Overcast
2:35 AM 23.0 °F 9.6 °F 19.4 °F 86% 30.12 in 5.0 mi NW 16.1 mph 23.0 mph N/A   Overcast
2:55 AM 23.0 °F 10.6 °F 19.4 °F 86% 30.12 in 7.0 mi NW 13.8 mph 18.4 mph N/A   Overcast
3:15 AM 23.0 °F 11.1 °F 19.4 °F 86% 30.13 in 7.0 mi NW 12.7 mph - N/A   Overcast
3:35 AM 23.0 °F 13.1 °F 19.4 °F 86% 30.14 in 7.0 mi WNW 9.2 mph 17.3 mph N/A   Overcast
3:55 AM 23.0 °F 12.4 °F 17.6 °F 80% 30.14 in 7.0 mi NW 10.4 mph 16.1 mph N/A   Overcast
4:15 AM 23.0 °F 12.4 °F 17.6 °F 80% 30.14 in 7.0 mi NW 10.4 mph - N/A   Overcast
4:35 AM 23.0 °F 12.4 °F 17.6 °F 80% 30.14 in 7.0 mi NW 10.4 mph 17.3 mph N/A   Unknown
4:55 AM 23.0 °F 13.9 °F 17.6 °F 80% 30.14 in 7.0 mi WNW 8.1 mph - N/A   Overcast
5:15 AM 21.2 °F 10.9 °F 17.6 °F 86% 30.15 in 7.0 mi WNW 9.2 mph 18.4 mph N/A   Mostly Cloudy
5:35 AM 21.2 °F 10.1 °F 17.6 °F 86% 30.17 in 7.0 mi WNW 10.4 mph - N/A   Mostly Cloudy
5:55 AM 21.2 °F 9.5 °F 17.6 °F 86% 30.17 in 7.0 mi WNW 11.5 mph 18.4 mph N/A   Overcast
6:15 AM 21.2 °F 7.8 °F 17.6 °F 86% 30.18 in 7.0 mi WNW 15.0 mph 20.7 mph N/A   Overcast
6:35 AM 21.2 °F 8.3 °F 17.6 °F 86% 30.19 in 10.0 mi NW 13.8 mph 19.6 mph N/A   Overcast
6:55 AM 21.2 °F 8.3 °F 17.6 °F 86% 30.20 in 10.0 mi NW 13.8 mph 20.7 mph N/A   Overcast
7:15 AM 21.2 °F 10.9 °F 17.6 °F 86% 30.21 in 10.0 mi NW 9.2 mph - N/A   Overcast
7:35 AM 21.2 °F 12.6 °F 17.6 °F 86% 30.22 in 10.0 mi NW 6.9 mph - N/A   Overcast
7:55 AM 21.2 °F 11.7 °F 17.6 °F 86% 30.22 in 10.0 mi WNW 8.1 mph - N/A   Overcast
8:15 AM 21.2 °F 7.8 °F 17.6 °F 86% 30.23 in 10.0 mi WNW 15.0 mph - N/A   Overcast
8:35 AM 21.2 °F 10.1 °F 17.6 °F 86% 30.24 in 10.0 mi West 10.4 mph - N/A   Overcast
8:55 AM 21.2 °F 10.9 °F 17.6 °F 86% 30.25 in 10.0 mi West 9.2 mph - N/A   Overcast
9:15 AM 21.2 °F 8.9 °F 17.6 °F 86% 30.26 in 10.0 mi West 12.7 mph 16.1 mph N/A   Overcast
9:35 AM 21.2 °F 10.9 °F 17.6 °F 86% 30.26 in 10.0 mi West 9.2 mph - N/A   Overcast
9:55 AM 21.2 °F 11.7 °F 17.6 °F 86% 30.27 in 10.0 mi WNW 8.1 mph - N/A   Overcast
10:15 AM 23.0 °F 13.1 °F 17.6 °F 80% 30.27 in 10.0 mi West 9.2 mph - N/A   Mostly Cloudy
10:35 AM 23.0 °F 13.1 °F 17.6 °F 80% 30.27 in 10.0 mi West 9.2 mph - N/A   Scattered Clouds
10:55 AM 24.8 °F 16.1 °F 17.6 °F 74% 30.27 in 10.0 mi WNW 8.1 mph - N/A   Scattered Clouds
11:15 AM 24.8 °F 16.1 °F 17.6 °F 74% 30.28 in 10.0 mi West 8.1 mph - N/A   Scattered Clouds
11:35 AM 26.6 °F 17.5 °F 17.6 °F 69% 30.27 in 10.0 mi West 9.2 mph - N/A   Clear
11:55 AM 26.6 °F 20.0 °F 17.6 °F 69% 30.26 in 10.0 mi West 5.8 mph - N/A   Clear
12:15 PM 26.6 °F 19.1 °F 17.6 °F 69% 30.26 in 10.0 mi West 6.9 mph - N/A   Clear
12:35 PM 28.4 °F 20.4 °F 17.6 °F 64% 30.26 in 10.0 mi West 8.1 mph - N/A   Clear
12:55 PM 28.4 °F 19.1 °F 17.6 °F 64% 30.25 in 10.0 mi West 10.4 mph - N/A   Clear
1:15 PM 30.2 °F 21.9 °F 17.6 °F 60% 30.24 in 10.0 mi West 9.2 mph 16.1 mph N/A   Clear
1:35 PM 30.2 °F 21.9 °F 17.6 °F 60% 30.24 in 10.0 mi West 9.2 mph - N/A   Clear
1:55 PM 30.2 °F 21.3 °F 17.6 °F 60% 30.24 in 10.0 mi West 10.4 mph - N/A   Clear
2:35 PM 32.0 °F 24.8 °F 17.6 °F 55% 30.24 in 10.0 mi WSW 8.1 mph - N/A   Clear
2:55 PM 32.0 °F 24.8 °F 17.6 °F 55% 30.25 in 10.0 mi WSW 8.1 mph - N/A   Clear
3:15 PM 32.0 °F 25.6 °F 17.6 °F 55% 30.26 in 10.0 mi WSW 6.9 mph - N/A   Clear
3:35 PM 32.0 °F 25.6 °F 17.6 °F 55% 30.25 in 10.0 mi WNW 6.9 mph - N/A   Clear
3:55 PM 32.0 °F 26.4 °F 19.4 °F 60% 30.26 in 10.0 mi West 5.8 mph - N/A   Clear
4:15 PM 32.0 °F 26.4 °F 19.4 °F 60% 30.27 in 10.0 mi WSW 5.8 mph - N/A   Clear
4:35 PM 32.0 °F 26.4 °F 19.4 °F 60% 30.26 in 10.0 mi WSW 5.8 mph - N/A   Clear
4:55 PM 32.0 °F 28.7 °F 19.4 °F 60% 30.26 in 10.0 mi West 3.5 mph - N/A   Clear
5:15 PM 32.0 °F - 19.4 °F 60% 30.26 in 10.0 mi Calm Calm - N/A   Clear
5:35 PM 32.0 °F - 19.4 °F 60% 30.27 in 10.0 mi Calm Calm - N/A   Clear
5:55 PM 30.2 °F - 19.4 °F 64% 30.26 in 10.0 mi Calm Calm - N/A   Clear
6:15 PM 30.2 °F - 19.4 °F 64% 30.27 in 10.0 mi Calm Calm - N/A   Clear
6:35 PM 28.4 °F - 19.4 °F 69% 30.28 in 10.0 mi Calm Calm - N/A   Clear
7:15 PM 26.6 °F - 19.4 °F 74% 30.29 in 10.0 mi Calm Calm - N/A   Clear
7:35 PM 24.8 °F - 19.4 °F 80% 30.29 in 10.0 mi Calm Calm - N/A   Clear
7:55 PM 23.0 °F - 19.4 °F 86% 30.29 in 10.0 mi Calm Calm - N/A   Clear
8:15 PM 23.0 °F - 19.4 °F 86% 30.28 in 10.0 mi Calm Calm - N/A   Clear
8:35 PM 21.2 °F - 19.4 °F 93% 30.29 in 10.0 mi Calm Calm - N/A   Clear
8:55 PM 21.2 °F - 19.4 °F 93% 30.28 in 10.0 mi Calm Calm - N/A   Clear
9:15 PM 21.2 °F - 17.6 °F 86% 30.28 in 10.0 mi Calm Calm - N/A   Clear
9:35 PM 21.2 °F - 17.6 °F 86% 30.29 in 10.0 mi Calm Calm - N/A   Unknown
9:55 PM 19.4 °F - 17.6 °F 93% 30.28 in 10.0 mi Calm Calm - N/A   Unknown
10:15 PM 19.4 °F - 17.6 °F 93% 30.28 in 10.0 mi Calm Calm - N/A   Clear
10:35 PM 19.4 °F - 17.6 °F 93% 30.28 in 10.0 mi Calm Calm - N/A   Clear
10:55 PM 19.4 °F - 17.6 °F 93% 30.29 in 10.0 mi Calm Calm - N/A   Clear
11:15 PM 17.6 °F - 17.6 °F 100% 30.29 in 10.0 mi Calm Calm - N/A   Clear
11:35 PM 17.6 °F - 15.8 °F 93% 30.29 in 10.0 mi Calm Calm - N/A   Clear
11:55 PM 17.6 °F - 15.8 °F 93% 30.30 in 10.0 mi Calm Calm - N/A   Unknown